Content
SEND FEEDBACK

Daily
Averages
Monthly
Summary
United States of America

CHICAGO, ILLINOIS


Home > North America > United States > Illinois
Elevation: 674 feet     Latitude: 41 59N     Longitude: 087 54W

WEATHER
 
SELECT A DAY
Number of Records: 194,798;   Date Range: 7/8/95 - 7/22/14
 
SHARE

PRINT THIS DATA

[ ← Previous Day ]
WEATHER ALMANAC - JULY 17, 2013
[ Next Day → ]
[ °C ]   °F
We're sorry. There is no daily almanac available for Chicago, Illinois on July 17, 2013.
WEATHER BY HOUR - JULY 17, 2013
[ °C ]   °F
Local TimeTemperatureDewpointHumidityBarometerVisibilityWind DirectionWind SpeedGust SpeedPrecipitationEventsConditions
1:52 AM82.0 °F71.1 °F69 %30.27 in10.0 miWSW (250°)3.5 mphClear
2:52 AM80.1 °F71.1 °F74 %30.28 in10.0 miCalmClear
3:52 AM78.1 °F70.0 °F76 %30.28 in10.0 miCalmClear
4:52 AM78.1 °F70.0 °F76 %30.28 in10.0 miCalmClear
5:52 AM78.1 °F71.1 °F79 %30.30 in10.0 miSW (230°)3.5 mphClear
6:52 AM80.1 °F71.1 °F74 %30.31 in10.0 miCalmClear
7:52 AM82.0 °F71.1 °F69 %30.31 in10.0 miWSW (250°)3.5 mphPartly Cloudy
8:52 AM86.0 °F72.0 °F63 %30.32 in10.0 miWSW (250°)6.9 mphClear
9:52 AM89.1 °F72.0 °F57 %30.31 in10.0 miWest (280°)6.9 mphScattered Clouds
10:52 AM90.0 °F72.0 °F55 %30.30 in10.0 miVariable5.8 mphPartly Cloudy
11:52 AM91.0 °F70.0 °F50 %30.28 in10.0 miWest (280°)4.6 mphPartly Cloudy
12:52 PM91.0 °F71.1 °F52 %30.27 in10.0 miWest (260°)4.6 mphScattered Clouds
1:52 PM91.9 °F69.1 °F47 %30.25 in10.0 miCalmOvercast
2:52 PM95.0 °F69.1 °F43 %30.22 in10.0 miWSW (250°)3.5 mphPartly Cloudy
3:52 PM93.0 °F68.0 °F44 %30.21 in10.0 miWest (260°)6.9 mphMostly Cloudy
4:52 PM95.0 °F69.1 °F43 %30.20 in10.0 miWNW (300°)9.2 mphClear
5:52 PM93.0 °F70.0 °F47 %30.19 in10.0 miWSW (250°)6.9 mphClear
6:52 PM91.9 °F70.0 °F48 %30.18 in10.0 miWest (280°)6.9 mphClear
7:52 PM90.0 °F71.1 °F54 %30.18 in10.0 miWest (270°)9.2 mphClear
8:52 PM89.1 °F71.1 °F55 %30.16 in10.0 miWSW (250°)4.6 mphClear
9:52 PM87.1 °F72.0 °F61 %30.18 in10.0 miCalmClear
10:52 PM86.0 °F72.0 °F63 %30.19 in10.0 miCalmClear
11:52 PM82.0 °F72.0 °F71 %30.19 in10.0 miSSW (200°)3.5 mphClear
Hourly data recorded from KPWK, located miles away from Chicago, Illinois







STORIES FROM OUR PARTNERS